Miscellaneous Local Product
Issued by NWS North Platte, NE

Home | Current Version | Previous Version | Text Only | Print | Product List | Glossary On
Versions: 1 2 3 4 5 6 7 8 9 10 11 12 13 14 15 16 17 18 19 20 21 22 23 24 25 26 27 28 29 30 31 32 33 34 35 36 37 38 39 40 41 42 43 44 45 46 47 48 49 50
169
AXUS43 KLBF 280810
MISLBF


WESTERN AND NORTH CENTRAL NEBRASKA HOURLY WEATHER ROUNDUP
NATIONAL WEATHER SERVICE NORTH PLATTE NE
300 AM CDT SUN MAY 28 2017

NOTE: "FAIR" INDICATES FEW OR NO CLOUDS BELOW 12,000 FEET WITH NO
SIGNIFICANT WEATHER AND/OR OBSTRUCTIONS TO VISIBILITY.

NOTE: STATIONS NOT REPORTING VARIABLES SUCH AS SKY/WEATHER OR
PRESSURE ARE PROVIDED BY RAWS AND APRS NETWORKS AND ARE NOT UNDER
NATIONAL WEATHER SERVICE QUALITY CONTROL.

...OBSERVATIONS IN AND NEAR THE EASTERN PANHANDLE OF NEBRASKA...

CITY           SKY/WX    TMP DP  RH WIND       PRES   REMARKS
PINE RIDGE     CLEAR     47  43  86 W6        30.07S
GORDON         FAIR      46  41  84 W6        30.07S
CHADRON        PTCLDY    49  42  77 S8        30.09S
ALLIANCE       CLEAR     41  39  93 W7        30.11S
SIDNEY         CLEAR     44  39  82 W12       30.16S
CRESCENT LAKE    N/A     46  40  81 W7          N/A
$$

...OBSERVATIONS IN NORTHERN NEBRASKA AND FAR SOUTHERN SOUTH DAKOTA...

CITY           SKY/WX    TMP DP  RH WIND       PRES   REMARKS
WINNER         FAIR      53  44  71 W6        29.95S
VALENTINE      CLEAR     50  43  77 W8        30.00F
THEDFORD       CLOUDY    49  46  87 W6        30.04F
AINSWORTH      CLEAR     52  46  77 W7        29.99S
O`NEILL        CLOUDY    54  46  73 W10       29.95F
ORD            CLEAR     51  46  83 NW8       29.96F
BROKEN BOW     CLEAR     55  47  74 W14       30.00F
VALENTINE NWR    N/A     55  42  62 W8          N/A
HALSEY           N/A     51  43  75 W6          N/A
BUTTE            N/A     52  46  79 NW7         N/A
CHAMBERS         N/A     53  47  79 CALM        N/A
EWING            N/A     51  47  87 W3          N/A
$$

...OBSERVATIONS IN SOUTHWEST NEBRASKA AND FAR NORTHEAST COLORADO...

CITY           SKY/WX    TMP DP  RH WIND       PRES   REMARKS
WRAY           FAIR      45  43  93 W8        30.15F
IMPERIAL       CLEAR     50  42  74 W12       30.11S
OGALLALA       CLEAR     45  43  91 W8        30.10F
NORTH PLATTE   CLEAR     42  41  96 NW7       30.06F
MCCOOK         CLEAR     50  49  96 W9        30.06F
LEXINGTON      CLEAR     48  46  91 NW7       30.03F
STAPLETON        N/A     46  43  88 CALM        N/A
GOTHENBURG       N/A     51  46  82 W5          N/A
CALLAWAY         N/A     52  48  86 W7          N/A
$$

...OBSERVATIONS IN CENTRAL LINCOLN COUNTY AREA...

CITY           SKY/WX    TMP DP  RH WIND       PRES   REMARKS
N.P. AIRPORT   CLEAR     42  41  96 NW7       30.06F
N.P. DOWNTOWN    N/A     48  45  91 CALM        N/A
N.P. SOUTHEAST   N/A     49  45  85 CALM        N/A
N.P. HILLCREST   N/A     47  44  89 NW5         N/A
$$

...SOME OBSERVATIONS FROM AROUND THE REGION...

CITY           SKY/WX    TMP DP  RH WIND       PRES   REMARKS
DENVER         CLEAR     44  39  82 SW9       30.25F
LIMON          CLEAR     40  39  97 W9        30.24F WCI  34
ASPEN          CLOUDY    34  30  85 S7        30.37R WCI  28
LARAMIE        CLEAR     31  28  89 S6        30.31S WCI  25
CASPER         CLOUDY    43  37  79 W8        30.23S
CHEYENNE       CLEAR     41  32  70 W9        30.25S
SCOTTSBLUFF    CLEAR     45  40  82 NW5       30.15S
GRAND ISLAND   CLEAR     54  51  90 W10       29.98F
OMAHA          MOCLDY    59  52  77 CALM      29.92S
SIOUX FALLS    PTCLDY    56  52  86 W6        29.85F
PIERRE         CLEAR     57  44  62 W16       29.89F
RAPID CITY     CLEAR     49  38  65 W8        30.02F
BISMARCK       CLEAR     44  40  85 CALM      29.88R
KANSAS CITY    CLOUDY    60  58  92 N7        29.88F
HILL CITY      CLEAR     55  51  86 NW9       30.05S
WICHITA        MOCLDY    65  60  84 N12       29.94F
DODGE CITY     CLOUDY    54  50  86 N13       30.03S
OKLAHOMA CITY  MOCLDY    70  61  73 N14       29.88R
DALLAS         MOCLDY    81  73  76 S14       29.71F
AMARILLO       CLEAR     52  47  83 N10       30.11R
$$




USA.gov is the U.S. government's official web portal to all federal, state and local government web resources and services.